"Pseudo-MPEC" for A106Ygy

Created 2018 Jun 15 10:18:03 UT using Find_Orb

Click here for an explanation of pseudo-MPECs

 
 Astrometry: 
     A106Ygy  C2018 05 21i0Astrometry;979N,e!@cRo7l\DTNg(we^p^-EW[hhP[Yi0?Te_T08
     A106Ygy  C2018 05 21q=.cdjasN!p:_@Rl?/M.wXC0G-OVMhMjwj.AR'n(dtA+L3J\:23rT08
     A106Ygy  C2018 05 210Dt=M*j15mwhTX]4:!/[`[Heqcw+5a)cY0m#%ls[j5y#=2xaHGsdT08
     A106Ygy  C2018 05 21WXS?a=xLd!RiHL$8Bredacted;m:Aq1u)06+1%Ot](9yEkKdF#SnT08
     A106Ygy  C2018 05 22)X`KKUFvfBZP2e;ODj#\sp[ra`\a=j0GJL'YM$FI^P[#ldH6g*/]T05
     A106Ygy  C2018 05 22?\x%:BbJCdNJF.wJ.b^[e*FgAgq*Kjf#seeo+=lGAi2p9XXj\fjDT05
     A106Ygy  C2018 05 22Jc/QPmZrGGvp,mbSi,?9yQqj3]41anOptZB6[:]\jTh^puMofF7FT05
     A106Ygy  C2018 05 224t4y5)N,W.`yyA:\W*6yB-uIcji?je$TTXj],Pno6nn2bPiFAii(T05
     A106Ygy  C2018 05 228Eb(eRbP1=*i-AO76DM^l9Fw)lL5j(ERd0^L;oiy^PA4g12NEOCPT05

Station data:
(T05) ATLAS-HKO, Haleakala  (N20.707573 W156.257010)  US/Hawaii.  Observers
   L. Denneau, A. Heinze, H. Weiland, B. Stalder, J. Tonry, A. Sherstyuk.
   Measurers L. Denneau, A. Heinze, J. Tonry. 0.5-m f/2.0 Schmidt + CCD.
(T08) ATLAS-MLO, Mauna Loa  (N19.535772 W155.576400)  US/Hawaii.

Orbital elements:  A106Ygy
   Perihelion 2018 Aug 3.761216 +/- 0.329 TT = 18:16:09 (JD 2458334.261216)
Epoch 2018 May 22.0 TT = JDT 2458260.5   Earth MOID: 0.0046   Ve: 0.0267
M 288.71603 +/- 0.52                (J2000 ecliptic)          AutoNEOCP
n   0.96641526 +/- 0.00284          Peri.  104.20683 +/- 0.034
a   1.01319614 +/- 0.00198          Node   250.40431 +/- 0.10
e   0.3702518 +/- 0.00372           Incl.    2.00919 +/- 0.034
P   1.02/372.50d           H 26.0   G  0.15   U  8.8  
q 0.63805840 +/- 0.00254    Q 1.38833388 +/- 0.00646
From 9 observations 2018 May 21-22 (25.0 hr); mean residual 0".61
Residuals in arcseconds: 
180521 T08  .11+  .09+    180521 T08  .16-  .78-    180522 T05  1.1-  .35-    
180521 T08  .29+  1.1+    180522 T05  1.4+  .74+    180522 T05  .15+  .02+    
180521 T08  .24-  .40-    180522 T05  .84-  .14-    180522 T05  .38+  .24-    

Ephemerides (geocentric):
Date (UTC) HH   RA              Dec         delta   r     elong  mag " sig PA
---- -- -- --  -------------   -----------  ------ ------ -----  --- ---- ---
2018 06 15 10  04 48 54.528   +25 46 02.24  .15035 .86840  10.5 36?? 50.5 133
2018 06 15 11  04 48 54.118   +25 46 10.53  .15067 .86812  10.6 36?? 50.4 133
2018 06 15 12  04 48 53.714   +25 46 18.76  .15098 .86784  10.6 36?? 50.3 133
2018 06 15 13  04 48 53.318   +25 46 26.95  .15130 .86755  10.6 36?? 50.3 133
2018 06 15 14  04 48 52.929   +25 46 35.09  .15161 .86727  10.7 36?? 50.2 133
2018 06 15 15  04 48 52.546   +25 46 43.17  .15193 .86699  10.7 36?? 50.1 133
2018 06 15 16  04 48 52.171   +25 46 51.22  .15225 .86671  10.8 36?? 50.1 133
2018 06 15 17  04 48 51.802   +25 46 59.21  .15257 .86642  10.8 36?? 50.0 133
2018 06 15 18  04 48 51.440   +25 47 07.15  .15288 .86614  10.8 36?? 49.9 133
2018 06 15 19  04 48 51.086   +25 47 15.05  .15320 .86586  10.9 36?? 49.8 133
2018 06 15 20  04 48 50.738   +25 47 22.90  .15352 .86558  10.9 36?? 49.8 133
2018 06 15 21  04 48 50.397   +25 47 30.71  .15384 .86529  11.0 36?? 49.7 133
2018 06 15 22  04 48 50.063   +25 47 38.47  .15415 .86501  11.0 36?? 49.6 133
2018 06 15 23  04 48 49.735   +25 47 46.18  .15447 .86473  11.0 36?? 49.5 133
2018 06 16 00  04 48 49.415   +25 47 53.84  .15479 .86445  11.1 36?? 49.5 133
2018 06 16 01  04 48 49.102   +25 48 01.46  .15511 .86416  11.1 35?? 49.4 133
2018 06 16 02  04 48 48.795   +25 48 09.04  .15543 .86388  11.2 35?? 49.3 133
2018 06 16 03  04 48 48.495   +25 48 16.56  .15575 .86360  11.2 35?? 49.2 133
2018 06 16 04  04 48 48.202   +25 48 24.05  .15606 .86332  11.2 35?? 49.2 133
2018 06 16 05  04 48 47.916   +25 48 31.49  .15638 .86303  11.3 35?? 49.1 133
2018 06 16 06  04 48 47.637   +25 48 38.88  .15670 .86275  11.3 35?? 49.0 133
2018 06 16 07  04 48 47.365   +25 48 46.23  .15702 .86247  11.4 35?? 49.0 133
2018 06 16 08  04 48 47.099   +25 48 53.53  .15734 .86219  11.4 35?? 48.9 133
2018 06 16 09  04 48 46.840   +25 49 00.80  .15766 .86191  11.4 35?? 48.8 133
2018 06 16 10  04 48 46.588   +25 49 08.01  .15798 .86162  11.5 35?? 48.7 133
2018 06 16 11  04 48 46.343   +25 49 15.19  .15830 .86134  11.5 35?? 48.7 133
2018 06 16 12  04 48 46.104   +25 49 22.32  .15862 .86106  11.6 35?? 48.6 133
2018 06 16 13  04 48 45.873   +25 49 29.41  .15894 .86078  11.6 35?? 48.5 133
2018 06 16 14  04 48 45.648   +25 49 36.45  .15927 .86049  11.6 35?? 48.4 133
2018 06 16 15  04 48 45.430   +25 49 43.45  .15959 .86021  11.7 35?? 48.4 133
2018 06 16 16  04 48 45.219   +25 49 50.41  .15991 .85993  11.7 35?? 48.3 133
2018 06 16 17  04 48 45.014   +25 49 57.33  .16023 .85965  11.8 35?? 48.2 133
2018 06 16 18  04 48 44.816   +25 50 04.21  .16055 .85937  11.8 35?? 48.1 133
2018 06 16 19  04 48 44.625   +25 50 11.04  .16087 .85908  11.8 35?? 48.1 133
2018 06 16 20  04 48 44.441   +25 50 17.83  .16119 .85880  11.9 35?? 48.0 133
2018 06 16 21  04 48 44.263   +25 50 24.59  .16152 .85852  11.9 35?? 47.9 133
2018 06 16 22  04 48 44.093   +25 50 31.30  .16184 .85824  11.9 35?? 47.8 133
2018 06 16 23  04 48 43.929   +25 50 37.97  .16216 .85795  12.0 35?? 47.8 133
2018 06 17 00  04 48 43.771   +25 50 44.59  .16248 .85767  12.0 35?? 47.7 133
2018 06 17 01  04 48 43.621   +25 50 51.18  .16281 .85739  12.1 35?? 47.6 133
2018 06 17 02  04 48 43.477   +25 50 57.73  .16313 .85711  12.1 35?? 47.5 133
2018 06 17 03  04 48 43.340   +25 51 04.24  .16345 .85683  12.1 35?? 47.5 133
2018 06 17 04  04 48 43.209   +25 51 10.71  .16378 .85654  12.2 35?? 47.4 133
2018 06 17 05  04 48 43.086   +25 51 17.14  .16410 .85626  12.2 35?? 47.3 133
2018 06 17 06  04 48 42.969   +25 51 23.52  .16442 .85598  12.3 35?? 47.2 133
2018 06 17 07  04 48 42.858   +25 51 29.87  .16475 .85570  12.3 35?? 47.1 134
2018 06 17 08  04 48 42.755   +25 51 36.19  .16507 .85542  12.3 35?? 47.1 134
2018 06 17 09  04 48 42.658   +25 51 42.46  .16540 .85513  12.4 35?? 47.0 134